127P/Holt-Olmstead (2022)

Japanese version
Home page
Updated on March 5, 2023

---------------------------------------------------------------------

* Profile

* Pictures

* Orbital Elements

Epoch 2022 Aug. 9.0 TT = JDT 2459800.5
T 2022 Aug. 10.48737 TT                                 Rudenko
q   2.2111748            (2000.0)            P               Q
n   0.15349358     Peri.    6.29149     +0.94111197     -0.33306526
a   3.4546912      Node    13.60429     +0.29843267     +0.73758826
e   0.3599501      Incl.   14.30094     +0.15889055     +0.58739348
P   6.42
>From 764 observations 2009 June 3-2022 Nov. 2, mean residual 0".8.
     Nongravitational parameters A1 = -1.23, A2 = +0.0356.

* Magnitudes Graph

        m1 = 11.5 + 5 log d + 15.0 log r

---------------------------------------------------------------------

The orbital elements are published on M.P.E.C. 2022-V95.
The magnitudes graphs are made with Comet for Windows.

---------------------------------------------------------------------

Copyright(C) Seiichi Yoshida (comet@aerith.net). All rights reserved.